Location: Boiro
(42.6475°N, 8.8834°W)
Time: 12:18:58
(UTC+01:00)

Transit 4A - Pass Details

Date: 02 December 2021
Orbit: 863 x 981 km, 66.8° (Epoch: 26 January)

Event Time Altitude Azimuth Distance (km) Brightness Sun altitude
Exits shadow 07:28:35 19° 294° (WNW) 2,107 9.1 -14.1°
Maximum altitude 07:31:42 29° 252° (WSW) 1,711 8.9 -13.5°
Drops below altitude 10° 07:37:01 10° 195° (SSW) 2,720 10.4 -12.6°
Sets 07:39:55 0° 185° (S) 3,667 11.2 -12.1°
